Weather History for North Bend, OR

Change the Weather History Date:

Tuesday, November 1, 2011

  Actual Average Record
Temperature  
Mean Temperature 48 °F 51 °F  
Max Temperature 59 °F 58 °F 78 °F (1926)
Min Temperature 36 °F 45 °F 28 °F (1920)
Degree Days  
Heating Degree Days 17 14  
Month to date heating degree days 17 14  
Since 1 July heating degree days 863 980  
Cooling Degree Days 0 0  
Month to date cooling degree days 0 0  
Year to date cooling degree days 1 2  
Moisture  
Dew Point 35 °F    
Average Humidity 64    
Maximum Humidity 79    
Minimum Humidity 43    
Precipitation  
Precipitation 0.00 in 0.25 in 3.64 in (1948)
Month to date precipitation 0.00 0.25  
Year to date precipitation 30.91 43.80  
Sea Level Pressure  
Sea Level Pressure 30.48 in    
Wind  
Wind Speed 6 mph (NE)    
Max Wind Speed 9 mph    
Max Gust Speed -    
Visibility 10 miles    
Events      
T = Trace of Precipitation, MM = Missing Value Source: NWS Daily Summary

Daily Weather History Graph

Daily Weather History Graph

Search for Another Location

Airport:

Trip Planner

Search our weather history database for the weather conditions in past years. The results will help you decide how hot, cold, wet, or windy it might be!

Date:

Astronomy

Nov. 01, 2011 Rise Set
Actual Time 7:52 AM PDT 6:08 PM PDT
Civil Twilight 7:22 AM PDT 6:38 PM PDT
Nautical Twilight 6:48 AM PDT 7:11 PM PDT
Astronomical Twilight 6:15 AM PDT 7:45 PM PDT
Moon 1:43 PM PDT (11/1) 11:56 PM PDT (11/1)
Length of Visible Light 11h 15m
Length of Day
10h 16m
Waxing Crescent, 41% of the Moon is Illuminated
Nov 1
Waxing Crescent
Nov 2
First Quarter
Nov 10
Full
Nov 18
Last Quarter
Nov 24
New

Hourly Weather History & Observations

Time (PDT) Temp. Windchill Dew Point Humidity Pressure Visibility Wind Dir Wind Speed Gust Speed Precip Events Conditions
12:15 AM 44.6 °F 40.7 °F 35.6 °F 71% 30.49 in 10.0 mi NNE 6.9 mph - N/A   Clear
12:35 AM 44.6 °F 40.7 °F 35.6 °F 71% 30.50 in 10.0 mi North 6.9 mph - N/A   Clear
12:55 AM 42.8 °F 39.3 °F 35.6 °F 76% 30.50 in 10.0 mi NNE 5.8 mph - N/A   Clear
1:15 AM 44.6 °F 40.7 °F 35.6 °F 71% 30.50 in 10.0 mi North 6.9 mph - N/A   Clear
1:35 AM 42.8 °F 38.6 °F 35.6 °F 76% 30.50 in 10.0 mi NNE 6.9 mph - N/A   Clear
1:55 AM 42.8 °F 39.3 °F 35.6 °F 76% 30.50 in 10.0 mi NNE 5.8 mph - N/A   Clear
2:15 AM 42.8 °F 38.6 °F 35.6 °F 76% 30.50 in 10.0 mi North 6.9 mph - N/A   Clear
2:35 AM 42.8 °F - 35.6 °F 76% 30.50 in 10.0 mi North - - N/A   Clear
2:55 AM 42.8 °F 38.6 °F 35.6 °F 76% 30.51 in 10.0 mi North 6.9 mph - N/A   Clear
3:15 AM 42.8 °F 38.6 °F 35.6 °F 76% 30.51 in 10.0 mi NNE 6.9 mph - N/A   Clear
3:35 AM 41.0 °F 36.4 °F 35.6 °F 81% 30.51 in 10.0 mi NNE 6.9 mph - N/A   Clear
3:55 AM 41.0 °F 39.0 °F 33.8 °F 76% 30.51 in 10.0 mi NNE 3.5 mph - N/A   Clear
4:15 AM 39.2 °F 35.0 °F 33.8 °F 81% 30.51 in 10.0 mi NNE 5.8 mph - N/A   Clear
4:35 AM 39.2 °F 35.0 °F 33.8 °F 81% 30.51 in 10.0 mi NE 5.8 mph - N/A   Clear
4:55 AM 39.2 °F 33.6 °F 33.8 °F 81% 30.51 in 10.0 mi ENE 8.1 mph - N/A   Clear
5:15 AM 37.4 °F 33.8 °F 28.4 °F 70% 30.51 in 10.0 mi East 4.6 mph - N/A   Clear
5:35 AM 37.4 °F 34.9 °F 30.2 °F 75% 30.51 in 10.0 mi SE 3.5 mph - N/A   Clear
5:55 AM 35.6 °F 30.7 °F 28.4 °F 75% 30.50 in 10.0 mi SE 5.8 mph - N/A   Clear
6:15 AM 37.4 °F 32.8 °F 30.2 °F 75% 30.51 in 10.0 mi ESE 5.8 mph - N/A   Clear
6:35 AM 37.4 °F 33.8 °F 30.2 °F 75% 30.51 in 10.0 mi SE 4.6 mph - N/A   Clear
6:55 AM 39.2 °F 33.6 °F 33.8 °F 81% 30.51 in 10.0 mi ENE 8.1 mph - N/A   Clear
7:15 AM 41.0 °F 37.1 °F 33.8 °F 76% 30.51 in 10.0 mi NE 5.8 mph - N/A   Clear
7:35 AM 41.0 °F 35.8 °F 33.8 °F 76% 30.51 in 10.0 mi ENE 8.1 mph - N/A   Clear
7:55 AM 39.2 °F - 32.0 °F 75% 30.51 in 10.0 mi Calm Calm - N/A   Clear
8:15 AM 39.2 °F 35.9 °F 32.0 °F 75% 30.52 in 10.0 mi NNE 4.6 mph - N/A   Clear
8:35 AM 41.0 °F - 33.8 °F 76% 30.53 in 10.0 mi Calm Calm - N/A   Clear
8:55 AM 41.0 °F 37.1 °F 35.6 °F 81% 30.53 in 10.0 mi SE 5.8 mph - N/A   Clear
9:15 AM 42.8 °F - 35.6 °F 76% 30.54 in 5.0 mi Calm Calm - N/A   Scattered Clouds
9:35 AM 42.8 °F 38.0 °F 35.6 °F 76% 30.53 in 10.0 mi SE 8.1 mph - N/A   Partly Cloudy
9:55 AM 46.4 °F 44.3 °F 35.6 °F 66% 30.53 in 10.0 mi ESE 4.6 mph - N/A   Clear
10:15 AM 48.2 °F - 35.6 °F 62% 30.53 in 10.0 mi NE 3.5 mph - N/A   Clear
10:35 AM 48.2 °F - 35.6 °F 62% 30.53 in 10.0 mi NE 10.4 mph - N/A   Clear
11:15 AM 51.8 °F - 35.6 °F 54% 30.52 in 10.0 mi NNE 5.8 mph - N/A   Clear
11:35 AM 51.8 °F - 35.6 °F 54% 30.52 in 10.0 mi Calm Calm - N/A   Clear
12:15 PM 53.6 °F - 35.6 °F 51% 30.50 in 10.0 mi NE 5.8 mph - N/A   Clear
12:35 PM 55.4 °F - 35.6 °F 47% 30.50 in 10.0 mi NNE 6.9 mph - N/A   Clear
12:55 PM 55.4 °F - 35.6 °F 47% 30.49 in 10.0 mi NNE 6.9 mph - N/A   Clear
1:15 PM 55.4 °F - 35.6 °F 47% 30.47 in 10.0 mi NE 4.6 mph - N/A   Clear
1:35 PM 57.2 °F - 35.6 °F 44% 30.46 in 10.0 mi NNE 6.9 mph - N/A   Clear
1:55 PM 57.2 °F - 35.6 °F 44% 30.46 in 10.0 mi North 6.9 mph - N/A   Clear
2:15 PM 55.4 °F - 33.8 °F 44% 30.45 in 10.0 mi NNE 10.4 mph - N/A   Clear
2:35 PM 57.2 °F - 35.6 °F 44% 30.44 in 10.0 mi NNE 9.2 mph - N/A   Clear
2:55 PM 57.2 °F - 35.6 °F 44% 30.44 in 10.0 mi NNE 9.2 mph - N/A   Clear
3:15 PM 57.2 °F - 35.6 °F 44% 30.43 in 10.0 mi NNE 8.1 mph - N/A   Clear
3:35 PM 57.2 °F - 35.6 °F 44% 30.42 in 10.0 mi NNE 9.2 mph - N/A   Clear
3:55 PM 59.0 °F - 37.4 °F 45% 30.42 in 10.0 mi NNE 8.1 mph - N/A   Clear
4:15 PM 57.2 °F - 37.4 °F 48% 30.41 in 10.0 mi NNE 8.1 mph - N/A   Clear
4:35 PM 57.2 °F - 37.4 °F 48% 30.40 in 10.0 mi NE 9.2 mph - N/A   Clear
4:55 PM 57.2 °F - 35.6 °F 44% 30.41 in 10.0 mi ENE 8.1 mph - N/A   Clear
5:15 PM 55.4 °F - 35.6 °F 47% 30.41 in 10.0 mi ENE 9.2 mph - N/A   Clear
5:35 PM 53.6 °F - 35.6 °F 51% 30.40 in 10.0 mi NE 8.1 mph - N/A   Clear
5:55 PM 51.8 °F - 35.6 °F 54% 30.39 in 10.0 mi ENE 5.8 mph - N/A   Clear
6:15 PM 51.8 °F - 35.6 °F 54% 30.39 in 10.0 mi NE 6.9 mph - N/A   Clear
6:35 PM 50.0 °F - 37.4 °F 62% 30.38 in 10.0 mi NE 6.9 mph - N/A   Clear
6:55 PM 48.2 °F - 35.6 °F 62% 30.38 in 10.0 mi NE 6.9 mph - N/A   Clear
7:15 PM 48.2 °F - 35.6 °F 62% 30.36 in 10.0 mi NE 5.8 mph - N/A   Clear
7:35 PM 48.2 °F - 35.6 °F 62% 30.36 in 10.0 mi NNE 4.6 mph - N/A   Clear
7:55 PM 46.4 °F 42.4 °F 35.6 °F 66% 30.35 in 10.0 mi NNE 8.1 mph - N/A   Clear
8:15 PM 46.4 °F 42.9 °F 37.4 °F 71% 30.35 in 10.0 mi NNE 6.9 mph - N/A   Clear
8:35 PM 46.4 °F 42.9 °F 37.4 °F 71% 30.34 in 10.0 mi NNE 6.9 mph - N/A   Clear
8:55 PM 46.4 °F 42.9 °F 37.4 °F 71% 30.33 in 10.0 mi NNE 6.9 mph - N/A   Clear
9:15 PM 46.4 °F 42.4 °F 37.4 °F 71% 30.33 in 10.0 mi North 8.1 mph - N/A   Clear
9:35 PM 44.6 °F 40.7 °F 37.4 °F 76% 30.32 in 10.0 mi NNE 6.9 mph - N/A   Clear
9:55 PM 44.6 °F 41.4 °F 35.6 °F 71% 30.31 in 10.0 mi North 5.8 mph - N/A   Clear
10:15 PM 44.6 °F 40.7 °F 35.6 °F 71% 30.30 in 10.0 mi NNE 6.9 mph - N/A   Clear
10:35 PM 44.6 °F 41.4 °F 35.6 °F 71% 30.30 in 10.0 mi NE 5.8 mph - N/A   Clear
10:55 PM 42.8 °F 39.3 °F 35.6 °F 76% 30.29 in 10.0 mi North 5.8 mph - N/A   Clear
11:15 PM 42.8 °F 41.1 °F 35.6 °F 76% 30.29 in 10.0 mi North 3.5 mph - N/A   Clear
11:35 PM 42.8 °F - 35.6 °F 76% 30.29 in 10.0 mi Calm Calm - N/A   Clear
11:55 PM 41.0 °F - 33.8 °F 76% 30.28 in 10.0 mi Calm Calm - N/A   Clear